Weather History for KPHF - December, 2012

Change the Weather History Date:

Friday, December 21, 2012

  Actual Average Record
Temperature  
Mean Temperature 52 °F -  
Max Temperature 64 °F 51 °F 73 °F (2013)
Min Temperature 37 °F 35 °F 15 °F (2000)
Degree Days  
Heating Degree Days 14    
Growing Degree Days 2 (Base 50)    
Moisture  
Dew Point 37 °F    
Average Humidity 58    
Maximum Humidity 83    
Minimum Humidity 36    
Precipitation  
Precipitation 0.24 in - - ()
Sea Level Pressure  
Sea Level Pressure 29.47 in    
Wind  
Wind Speed 19 mph (WSW)    
Max Wind Speed 23 mph    
Max Gust Speed 36 mph    
Visibility 8 miles    
Events Rain    
Averages and records for this station are not official NWS values.
T = Trace of Precipitation, MM = Missing Value Source: NWS Daily Summary

Daily Weather History Graph

Daily Weather History Graph

Search for Another Location

Airport or City:

Trip Planner

Search our weather history database for the weather conditions in past years. The results will help you decide how hot, cold, wet, or windy it might be!

Date:

Astronomy

Dec. 21, 2012 Rise Set
Actual Time 7:16 AM EST 4:52 PM EST
Civil Twilight 6:46 AM EST 5:21 PM EST
Nautical Twilight 6:14 AM EST 5:54 PM EST
Astronomical Twilight 5:42 AM EST 6:26 PM EST
Moon 12:33 PM EST (12/21) 1:06 AM EST (12/21)
Length of Visible Light 10h 34m
Length of Day
9h 36m
Waxing Gibbous, 64% of the Moon is Illuminated
Dec 21
Waxing Gibbous
Dec 28
Full
Jan 4
Last Quarter
Jan 11
New
Jan 18
First Quarter

Hourly Weather History & Observations

Time (EST) Temp. Windchill Dew Point Humidity Pressure Visibility Wind Dir Wind Speed Gust Speed Precip Events Conditions
12:50 AM 62.6 °F - 57.2 °F 82% 29.45 in 2.5 mi SSE 18.4 mph 33.4 mph 0.05 in Rain Rain
12:54 AM 63.0 °F - 57.0 °F 81% 29.45 in 2.5 mi SSE 23.0 mph 32.2 mph 0.06 in Rain Rain
1:10 AM 62.6 °F - 57.2 °F 82% 29.43 in 3.0 mi SSE 19.6 mph 29.9 mph 0.04 in Rain Light Rain
1:54 AM 64.0 °F - 57.9 °F 80% 29.37 in 2.5 mi South 21.9 mph 34.5 mph 0.05 in Rain Light Rain
2:04 AM 64.4 °F - 57.2 °F 77% 29.36 in 6.0 mi South 23.0 mph 34.5 mph 0.00 in   Haze
2:31 AM 64.4 °F - 57.2 °F 77% 29.35 in 4.0 mi South 23.0 mph 35.7 mph 0.02 in Rain Light Rain
2:54 AM 64.0 °F - 57.9 °F 80% 29.34 in 4.0 mi South 21.9 mph 27.6 mph 0.04 in Rain Light Rain
3:05 AM 64.4 °F - 59.0 °F 83% 29.34 in 2.5 mi SSW 15.0 mph 25.3 mph 0.04 in Rain Rain
3:08 AM 64.4 °F - 59.0 °F 83% 29.34 in 2.5 mi SSW 15.0 mph 21.9 mph 0.05 in Rain Rain
3:19 AM 64.4 °F - 59.0 °F 83% 29.34 in 4.0 mi SW 16.1 mph - 0.07 in Rain Light Rain
3:39 AM 60.8 °F - 53.6 °F 77% 29.36 in 9.0 mi West 19.6 mph 34.5 mph 0.09 in   Overcast
3:54 AM 60.1 °F - 50.0 °F 69% 29.36 in 10.0 mi WSW 21.9 mph 34.5 mph 0.09 in   Overcast
4:54 AM 55.0 °F - 45.0 °F 69% 29.37 in 10.0 mi West 15.0 mph - N/A   Clear
5:54 AM 52.0 °F - 37.0 °F 57% 29.40 in 10.0 mi West 18.4 mph 29.9 mph N/A   Overcast
6:54 AM 48.9 °F - 35.1 °F 59% 29.43 in 10.0 mi West 23.0 mph 35.7 mph N/A   Partly Cloudy
7:54 AM 46.9 °F - 30.0 °F 52% 29.46 in 10.0 mi West 16.1 mph 32.2 mph N/A   Partly Cloudy
8:54 AM 46.9 °F - 28.9 °F 50% 29.48 in 10.0 mi West 17.3 mph 25.3 mph N/A   Overcast
9:54 AM 46.9 °F - 28.9 °F 50% 29.50 in 10.0 mi West 20.7 mph 31.1 mph N/A   Overcast
10:54 AM 46.9 °F - 27.0 °F 46% 29.50 in 10.0 mi West 17.3 mph 28.8 mph N/A   Overcast
11:54 AM 48.0 °F - 25.0 °F 41% 29.49 in 10.0 mi West 17.3 mph 29.9 mph N/A   Overcast
12:54 PM 48.0 °F - 25.0 °F 41% 29.48 in 10.0 mi West 19.6 mph 33.4 mph N/A   Overcast
1:54 PM 48.0 °F - 25.0 °F 41% 29.48 in 10.0 mi West 16.1 mph 27.6 mph N/A   Overcast
2:54 PM 48.0 °F - 21.9 °F 36% 29.49 in 10.0 mi West 23.0 mph 31.1 mph N/A   Overcast
3:54 PM 46.9 °F - 21.0 °F 36% 29.52 in 10.0 mi West 18.4 mph 29.9 mph N/A   Overcast
4:54 PM 45.0 °F 36.4 °F 19.9 °F 37% 29.54 in 10.0 mi West 23.0 mph 34.5 mph N/A   Overcast
5:54 PM 44.1 °F 35.4 °F 19.9 °F 38% 29.58 in 10.0 mi West 21.9 mph 28.8 mph N/A   Overcast
6:54 PM 43.0 °F 35.7 °F 19.9 °F 40% 29.60 in 10.0 mi West 15.0 mph 24.2 mph N/A   Overcast
7:54 PM 42.1 °F 33.6 °F 19.0 °F 40% 29.61 in 10.0 mi West 18.4 mph 29.9 mph N/A   Overcast
8:54 PM 42.1 °F 33.1 °F 19.0 °F 40% 29.63 in 10.0 mi West 20.7 mph 31.1 mph N/A   Overcast
9:54 PM 39.9 °F 30.0 °F 18.0 °F 41% 29.65 in 10.0 mi West 21.9 mph 31.1 mph N/A   Clear
10:54 PM 39.0 °F 31.8 °F 19.0 °F 45% 29.66 in 10.0 mi West 11.5 mph - N/A   Partly Cloudy
11:54 PM 37.9 °F 30.0 °F 19.9 °F 48% 29.68 in 10.0 mi West 12.7 mph - N/A   Clear